Flag for India Weather past 2 weeks in Vasai-Virar, Maharashtra, India

Now
84 °F

Fog.


Feels Like: 98 °F
Forecast: 80 / 96 °F
Wind: 6 mph from Southwest

Location: Bombay / Santacruz

Current Time: Mar 27, 2015 at 4:14:25 AM

Latest Report: Mar 27, 2015 at 2:40 AM


Visibility: 2 mi

Pressure: 29.89 "Hg

Humidity: 89%

Dew point: 81 °F

Location of Vasai-VirarLocation

Historic Weather in Vasai-Virar — Graph

°F

Vasai-Virar temperature yesterday

Maximum temperature yesterday: 91 °F (at 10:40 AM)
Minimum temperature yesterday: 84 °F (at 12:40 AM)
Average temperature yesterday: 86 °F

Past Weeks' High & Low Weather Summary

 TemperatureHumidityPressure
High104 °F (Mar 25, 1:40 PM)94% (Mar 22, 2:40 AM)30.04 "Hg (Mar 22, 2:40 AM)
Low73 °F (Mar 17, 2:40 AM)23% (Mar 18, 12:40 PM)29.71 "Hg (Mar 25, 3:40 PM)
Average85 °F56%29.88 "Hg
* Reported Mar 12 1:40 AM — Mar 27 1:40 AM, Vasai-Virar, Weather by CustomWeather, © 2015

Note: Actual official high and low records may vary slightly from our data, if they occured in-between our weather recording intervals... More about our weather records

Advertising

Vasai-Virar weather history for previous 24 hours

 ConditionsComfort  
Time TempWeatherWind HumidityBarometerVisibility
1:40 AM
Fri, Mar 27
84 °FFog.7 mph89%29.89 "Hg2 mi
12:40 AM84 °FPassing clouds.5 mph89%29.92 "Hg2 mi
11:40 PM
Thu, Mar 26
84 °FPassing clouds.3 mph89%29.92 "Hg2 mi
10:40 PM84 °FPassing clouds.6 mph89%29.95 "Hg2 mi
9:40 PM84 °FPassing clouds.6 mph89%29.95 "Hg2 mi
8:40 PM84 °FPassing clouds.7 mph89%29.92 "Hg2 mi
7:40 PM84 °FPassing clouds.12 mph89%29.89 "Hg2 mi
6:40 PM84 °FScattered clouds.9 mph84%29.86 "Hg2 mi
5:40 PM86 °FScattered clouds.13 mph84%29.83 "Hg2 mi
4:40 PM88 °FScattered clouds.7 mph79%29.80 "Hg2 mi
3:40 PM88 °FScattered clouds.7 mph75%29.83 "Hg2 mi
2:40 PM90 °FScattered clouds.7 mph75%29.83 "Hg2 mi
1:40 PM90 °FScattered clouds.14 mph67%29.86 "Hg2 mi
12:40 PM91 °FScattered clouds.10 mph63%29.86 "Hg2 mi
11:40 AM91 °FHaze.8 mph63%29.89 "Hg2 mi
10:40 AM91 °FHaze.7 mph59%29.92 "Hg2 mi
9:40 AM90 °FHaze.9 mph67%29.89 "Hg1 mi
8:40 AM86 °FScattered clouds.3 mph75%29.89 "Hg1 mi
7:40 AM86 °FScattered clouds.2 mph70%29.89 "Hg1 mi
6:40 AM86 °FHaze.No wind70%29.86 "Hg1 mi
5:40 AM84 °FHaze.No wind79%29.83 "Hg1 mi
4:40 AM84 °FHaze.5 mph79%29.83 "Hg1 mi
Weather by CustomWeather, © 2015

See weather overviewHow to use our weather pages